Regional Weather Roundup
Issued by NWS

Home | Current Version | Previous Version | Graphics & Text | Print | Product List | Glossary On
Versions: 1 2 3 4 5 6 7 8 9 10 11 12 13 14 15 16 17 18 19 20 21 22 23 24 25 26 27 28 29 30 31 32 33 34 35 36 37 38 39 40 41 42 43 44 45 46 47 48 49 50
000
ASUS43 KIND 181759
RWRIN

WEATHER ROUNDUP FOR INDIANA
NATIONAL WEATHER SERVICE INDIANAPOLIS IN
200 PM EDT SAT APR 18 2015

NOTE: "FAIR" INDICATES FEW OR NO CLOUDS BELOW 12,000 FEET WITH NO
SIGNIFICANT WEATHER AND/OR OBSTRUCTIONS TO VISIBILITY.

* - STATION DOES NOT REPORT WEATHER SUCH AS PRECIPITATION OR FOG.

+ - STATION NOT QUALITY CONTROLLED BY THE NATIONAL WEATHER SERVICE.
    USE DATA WITH CAUTION...ESPECIALLY DEWPOINT AND RELATIVE
    HUMIDITY OBSERVATIONS.

INZ001>003-010>013-019-020-181900-
NORTHWEST INDIANA

CITY           SKY/WX    TMP DP  RH WIND       PRES   REMARKS
GARY /AIRPORT/ CLOUDY    52  36  54 N12G23    30.10S
RENSSELAER +   CLOUDY    75  54  46 CALM      30.03F

$$

LMZ046-743>745-181900-
SOUTHERN LAKE MICHIGAN

STATION/POSITION TIME  TEMP WIND        PRES
                       AIR  DIR/SP/G
                 (UTC) (F)  (DEG/KT/KT) (MB)
BURNS HARBOR     1700   43  330/ 10/ 12 1019.6R
MICHIGAN CITY    1700   44  290/  7/  8   N/A
4NW MICH CITY    1700   42                N/A

$$

INZ004-005-014>016-021>024-181900-
NORTH CENTRAL INDIANA

CITY           SKY/WX    TMP DP  RH WIND       PRES   REMARKS
GOSHEN         PTSUNNY   76  51  41 MISG      30.03S
6HR MIN TEMP:  51; 6HR MAX TEMP:  77;

SOUTH BEND     PTSUNNY   77  47  34 E7        30.04S
6HR MIN TEMP:  57; 6HR MAX TEMP:  77;


$$

INZ006>009-017-018-025>027-181900-
NORTHEAST INDIANA

CITY           SKY/WX    TMP DP  RH WIND       PRES   REMARKS
ANGOLA *+      MOSUNNY   75  48  38 N5        30.04S
FORT WAYNE     CLOUDY    77  50  38 CALM      30.04F
6HR MIN TEMP:  53; 6HR MAX TEMP:  77;


$$

INZ028-029-035-036-043>045-051>053-181900-
WEST CENTRAL INDIANA

CITY           SKY/WX    TMP DP  RH WIND       PRES   REMARKS
GREENCASTLE +  PTSUNNY   73  41  31 E8        30.04F
LAFAYETTE      CLOUDY    75  47  36 CALM      30.03F
6HR MIN TEMP:  49; 6HR MAX TEMP:  75;

TERRE HAUTE    PTSUNNY   76  48  37 SE9       30.02F
6HR MIN TEMP:  51; 6HR MAX TEMP:  76;


$$

INZ030>032-037>040-046>048-054>057-064-065-181900-
CENTRAL INDIANA

CITY           SKY/WX    TMP DP  RH WIND       PRES   REMARKS
ANDERSON       MOSUNNY   75  41  29 VRB3      30.05F
COLUMBUS       MOSUNNY   75  36  23 SE8       30.04F
INDIANAPOLIS   PTSUNNY   76  42  29 SE6       30.03F
6HR MIN TEMP:  54; 6HR MAX TEMP:  76;

-EAGLE CREEK   CLOUDY    75  44  33 SE8       30.04F
6HR MIN TEMP:  53; 6HR MAX TEMP:  75;

KOKOMO *+      CLOUDY    77  48  36 CALM      30.04S
6HR MIN TEMP:  50; 6HR MAX TEMP:  77;

MT COMFORT *+  PTSUNNY   77  23  13 E3        30.05F
SHELBYVILLE    PTSUNNY   79  45  29 E9        30.03F
6HR MIN TEMP:  53; 6HR MAX TEMP:  79;


$$

INZ033-034-041-042-049-050-058-059-181900-
EAST CENTRAL INDIANA

CITY           SKY/WX    TMP DP  RH WIND       PRES   REMARKS
MUNCIE         CLOUDY    76  47  35 E5        30.04F
6HR MIN TEMP:  51; 6HR MAX TEMP:  77;


$$

INZ060-061-067>069-081>083-085>088-181900-
SOUTHWEST INDIANA

CITY           SKY/WX    TMP DP  RH WIND       PRES   REMARKS
EVANSVILLE     MOSUNNY   77  54  44 VRB3      30.00F
6HR MIN TEMP:  57; 6HR MAX TEMP:  78;

HUNTINGBURG *+ PTSUNNY   77  54  44 E6        29.99F
6HR MIN TEMP:  54; 6HR MAX TEMP:  77;


$$

INZ062-063-066-070>080-084-089>092-181900-
SOUTH CENTRAL AND SOUTHEAST INDIANA

CITY           SKY/WX    TMP DP  RH WIND       PRES   REMARKS
BLOOMINGTON    PTSUNNY   75  43  31 SE10      30.03F
6HR MIN TEMP:  52; 6HR MAX TEMP:  76;

MADISON *+     PTSUNNY   75  32  20 SE8       30.05F

$$



USA.gov is the U.S. government's official web portal to all federal, state and local government web resources and services.